Regional Weather Roundup
Issued by NWS Upton, NY

Current Version | Previous Version | Graphics & Text | Print | Product List | Glossary Off
Versions: 1 2 3 4 5 6 7 8 9 10 11 12 13 14 15 16 17 18 19 20 21 22 23 24 25 26 27

000
ASUS41 KOKX 211709
RWROKX

REGIONAL WEATHER ROUNDUP
NATIONAL WEATHER SERVICE NEW YORK NY
100 PM EDT THU SEP 21 2017

NOTE: "FAIR" INDICATES FEW OR NO CLOUDS BELOW 12,000 FEET WITH NO
SIGNIFICANT WEATHER AND/OR OBSTRUCTIONS TO VISIBILITY.

NYZ071-072-176-178-NJZ106-104-211800-
NEW YORK CITY METRO AREA

CITY           SKY/WX    TMP DP  RH WIND       PRES   REMARKS
Central Park   CLOUDY    79  62  56 N8        30.03F
Bronx Bot Gard   N/A     77  63  61 N13       30.03S
LaGuardia APRT CLOUDY    79  63  57 NE13G21   30.00S
Kennedy INTL   CLOUDY    79  63  57 N18G25    30.01S
Breezy Point     N/A     77 N/A N/A NE12        N/A
Newark/Liberty PTSUNNY   83  63  50 N12       30.00F
Teterboro      CLOUDY    81  63  54 N8        29.99F
$$

NYZ177-179-078>081-211800-
LONG ISLAND NEW YORK

CITY           SKY/WX    TMP DP  RH WIND       PRES   REMARKS
Jones Beach      N/A     75 N/A N/A N14G20      N/A
Matinecock PT    N/A     75 N/A N/A NE14        N/A
Farmingdale    CLOUDY    76  62  62 N17G23    29.99F
MacArthur/ISP  CLOUDY    75  64  68 N13G21    29.98S
Shirley        CLOUDY    75  65  70 N12G21    29.98S
Mt Sinai Harb    N/A    N/A N/A N/A N12         N/A
Westhampton    CLOUDY    73  62  68 N14G22    29.98R
East Hampton   FAIR      70  61  72 N15       29.95S
Montauk          N/A     71  62  73 N12G23    29.95S
$$

NYZ052-065-067-211800-
HUDSON VALLEY

CITY           SKY/WX    TMP DP  RH WIND       PRES   REMARKS
White Plains   PTSUNNY   77  62  59 N9        30.01F
Larchmont Harb   N/A     75 N/A N/A N14G20      N/A
Croton On Huds   N/A     81 N/A N/A NW5G13      N/A
Newburgh       MOSUNNY   75  64  69 N12       30.05F
Montgomery     PTSUNNY   78  63  59 NE12      30.03F
Poughkeepsie   CLOUDY    77  64  64 NW7       30.02F
Albany         CLOUDY    76  63  64 N9        30.07F
$$

NJZ001-105-106-008-010-013-015-019>022-104-211800-
NEW JERSEY

CITY           SKY/WX    TMP DP  RH WIND       PRES   REMARKS
Newark/Liberty PTSUNNY   83  63  50 N12       30.00F
Teterboro      CLOUDY    81  63  54 N8        29.99F
Caldwell       PTSUNNY   80  64  58 VRB7      30.02F
Somerville     NOT AVBL
Linden         FAIR      81  62  51 N10       30.01
Perth Amboy      N/A     77 N/A N/A N9          N/A
Sussex         MOSUNNY   77  66  68 E10       30.04F
Andover          N/A     79  63  57 VRB7      30.05F
Trenton        SUNNY     83  63  50 N8G20     30.01F
Millville      SUNNY     86  66  51 N12       30.00F
Atlantic City  SUNNY     84  64  50 N14       29.99S
Wrightstown    MOSUNNY   82  63  52 N10       29.98F
Toms River     PTSUNNY   80  64  58 N13       30.01S
Belmar         CLOUDY    78  65  63 N9        30.02S
$$

PAZ047>061-062-071-211800-
EASTERN PENNSYLVANIA

CITY           SKY/WX    TMP DP  RH WIND       PRES   REMARKS
Philadelphia   MOSUNNY   85  60  42 N8G23     30.01F
Allentown      MOSUNNY   84  64  50 N5        30.04F
Scranton       SUNNY     80  64  58 N5        30.08F
$$

CTZ002-004>006-009-010-012-RIZ004-006-007-MAZ004-011-015-211800-
SOUTHERN NEW ENGLAND
 IN CT

CITY           SKY/WX    TMP DP  RH WIND       PRES   REMARKS
Bradley INTL   CLOUDY    76  61  59 N16G26    30.02S
Hartford       CLOUDY    75  63  66 N15G22    29.99F
Danbury        CLOUDY    77  62  59 N9        30.03F
Wtrbury/Oxford CLOUDY    73  63  70 N12G20    30.03F
Norwalk Harbor   N/A     75 N/A N/A N13G18      N/A
Bridgeport     PTSUNNY   76  62  62 N15       29.99F
Meriden        CLOUDY    75  62  64 N9G24     29.99F
New Haven      CLOUDY    75  61  61 N16G23    29.98F
Chester        FAIR      73  61  64 N13G21    29.99S
Groton         CLOUDY    72  59  63 N20G26    29.94F
Wilimantic     CLOUDY    74  61  63 N17G24    30.00S

 IN RI

CITY           SKY/WX    TMP DP  RH WIND       PRES   REMARKS
Providence     CLOUDY    71  56  58 N28G36    29.98S
Block Island   CLOUDY    70  59  68 N17G33    29.92F
Westerly       CLOUDY    72  60  66 N16G30    29.95S
 IN MA

CITY           SKY/WX    TMP DP  RH WIND       PRES   REMARKS
Boston         CLOUDY    69  51  52 N26G36    30.02S
Worcester      CLOUDY    68  55  63 N14G22    30.05S
Westfield      CLOUDY    76  62  62 NE13      30.02F
Provincetown   CLOUDY    62  54  74 N23G35    29.93S
Nantucket      LGT RAIN  62  62 100 N38G48    29.79S FOG
$$

ANZ330-335-338-340-345-350-353-355-211800-
COASTAL MARINE OBSERVATIONS


STATION/POSITION TIME  SKY/WX   TEMP    WIND        PRES    VSBY  WAVE
                                AIR SEA DIR/SP/G                  HT/PER
                 (UTC)          (F)     (DEG/KT/KT) (MB)    (MI)  (FT/S)
NY HARB ENTRANCE 1550            73 70  350/ 10/ 12 1015.1          4/ 9
20 S FIRE ISLAND 1550            70 67  360/ 14/ 16 1015.0          6/ 9
GREAT SOUTH BAY  1630            73 71  360/ 14/ 19   N/A
23 SSW MONTAUK P 1550            69 65              1013.3          6/ 9
15 E BARNEGAT LI 1630               69                N/A           5/ 9
HUDSON CANYON    1550            70 70  340/ 21/ 27 1012.6          8/10
KINGS POINT      1630            76 71   50/  7/  9 1016.8
EXECUTION ROCKS  1645            76      30/ 10/ 16   N/A
WESTERN LI SOUND NOT AVBL
CENTRAL LI SOUND 1645            72     360/ 12/ 16   N/A           1
EASTERN LI SOUND NOT AVBL
ROBBINS REEF     1630            76      30/ 16/ 17 1016.5
$$


>>>>>>>>>>>>>>>>>>>>>>>>>>>> KEY <<<<<<<<<<<<<<<<<<<<<<<<<<<
>                                                          <
>     SKY/WX - Sky Condition/Present Weather               <
>     TMP    - Temperature in Fahrenheit                   <
>     DP     - Dew Point in Fahrenheit                     <
>     RH     - Relative Humidity in Percent                <
>     WIND   - Direction (from) and Speed in MPH           <
>     PRES   - Mean Sea Level Pressure (inches of Hg)      <
>     WCI    - Wind Chill Index                            <
>     VSB    - VISIBILITY IN MILES                         <
>     HX     - HEAT INDEX                                  <
>     TC     - TEMPERATURE IN CELSIUS                      <
>     VRB    - VARIABLE WIND DIRECTION                     <
>                                                          <
>>>>>>>>>>>>>>>>>>>>>>>>>>>> KEY <<<<<<<<<<<<<<<<<<<<<<<<<<<




USA.gov is the U.S. government's official web portal to all federal, state and local government web resources and services.